Content
SEND FEEDBACK

Daily
Averages
Monthly
Summary
Canada

VANCOUVER - CITY HALL, BRITISH COLUMBIA


Home > North America > Canada > British Columbia
Elevation: 283 feet     Latitude: 49 17N     Longitude: 123 07W

WEATHER
 
SELECT A DAY
Number of Records: 173,185;   Date Range: 4/23/95 - 11/21/14
 
SHARE

PRINT THIS DATA

[ ← Previous Day ]
WEATHER ALMANAC - FEBRUARY 16, 2013
[ Next Day → ]
[ °C ]   °F
Weather ElementAverageHighLow
Temperature42.7 °F49.8 °F (2:00 pm)37 °F (10:00 pm)
Dewpoint38.7 °F42.1 °F (3:00 am)33.8 °F (11:00 pm)
Humidity85.8 %96 % (3:00 am)62 % (2:00 pm)
Barometer30.09 in30.14 in (1:00 am)30.05 in (2:00 pm)
Wind Speed2 mph3.5 mph (10:00 am)
Weather ElementAverage
Wind DirectionSSE (156.5 °)

Weather ElementTotal
Precipitation0.13 in
Heating Degree Days21.6 (Base 65)
Averaged from 26 records on February 16, 2013
WEATHER CONDITIONS BREAKOUT
WIND DIRECTION BREAKOUT
WEATHER BY HOUR - FEBRUARY 16, 2013
[ °C ]   °F
Local TimeTemperatureDewpointHumidityBarometerVisibilityWind DirectionWind SpeedGust SpeedPrecipitationEventsConditions
1:00 AM42.4 °F41.0 °F95 %30.14 inCalm0.03 in
2:00 AM42.3 °F41.0 °F95 %30.14 inWNW (290°)2.3 mph0.02 in
3:00 AM43.2 °F42.1 °F96 %30.12 inSW (230°)1.2 mph0.08 in
4:00 AM43.0 °F42.0 °F92 %30.11 inESE (110°)1.2 mph
4:00 AM42.6 °F41.5 °F96 %30.11 inESE (110°)1.2 mph
5:00 AM42.3 °F41.2 °F96 %30.10 inEast (100°)2.3 mph
6:00 AM41.7 °F40.6 °F96 %30.10 inESE (110°)2.3 mph
7:00 AM41.4 °F40.3 °F96 %30.09 inEast (100°)1.2 mph
8:00 AM41.4 °F40.3 °F96 %30.10 inEast (100°)2.3 mph
9:00 AM41.9 °F40.5 °F95 %30.10 inEast (90°)1.2 mph
10:00 AM43.0 °F42.0 °F92 %30.09 inEast (80°)3.5 mph
10:00 AM43.3 °F41.5 °F93 %30.09 inEast (80°)3.5 mph
11:00 AM47.1 °F41.5 °F81 %30.09 inSouth (170°)1.2 mph
12:00 PM47.1 °F41.5 °F81 %30.08 inSSW (200°)2.3 mph
1:00 PM46.9 °F39.6 °F76 %30.07 inSouth (190°)2.3 mph
2:00 PM49.8 °F37.2 °F62 %30.05 inSW (220°)1.2 mph
3:00 PM47.1 °F37.0 °F68 %30.05 inWest (280°)1.2 mph
4:00 PM46.0 °F38.0 °F65 %30.06 inWest (280°)2.3 mph
5:00 PM45.3 °F36.0 °F70 %30.05 inWSW (240°)2.3 mph
6:00 PM42.8 °F35.6 °F76 %30.06 inNNW (330°)3.5 mph
7:00 PM41.4 °F35.6 °F80 %30.07 inNNW (340°)2.3 mph
8:00 PM39.2 °F35.1 °F85 %30.08 inNorth (360°)2.3 mph
9:00 PM37.9 °F34.3 °F87 %30.09 inNorth (10°)2.3 mph
10:00 PM37.0 °F34.0 °F85 %30.10 inNNE (20°)2.3 mph
10:00 PM37.0 °F34.2 °F89 %30.10 inNNE (20°)2.3 mph
11:00 PM37.0 °F33.8 °F88 %30.12 inNorth (10°)2.3 mph
Hourly data recorded from CWWA, located miles away from Vancouver - City Hall, British Columbia







STORIES FROM OUR PARTNERS